NUVIEW ALPHA

Last updated on Tue Sep 22 2026 00:03:16 GMT+0000 (Coordinated Universal Time)

1 62455U 24252B 26264.44337553 -.00000219 00000+0 00000+0 0 9992 2 62455 0.0528 15.3141 0000323 186.4112 235.1137 1.00271785 4787
UTC large
Height (km)
Speed (km/s)
/
Latitude / Longitude
Inclination (degrees)
Orbital Period (minutes)
Azimuth
Elevation
Range (km)
Doppler Factor

Next 0 passes for location: London (51.5072 / 0.1276)

No passes found over London.
NUVIEW ALPHA